Regional Weather Roundup
Issued by NWS

Home | Current Version | Previous Version | Text Only | Print | Product List | Glossary Off
Versions: 1 2 3 4 5 6 7 8 9 10 11 12 13 14 15 16 17 18 19 20 21 22 23 24 25 26 27 28 29 30 31 32 33 34 35 36 37 38 39 40 41 42 43 44 45 46 47 48 49 50

000
ASUS43 KMPX 160510
RWRMN
WEATHER ROUNDUP FOR MINNESOTA
NATIONAL WEATHER SERVICE TWIN CITIES/CHANHASSEN MN
1200 AM CDT WED AUG 16 2017


NOTE: "FAIR" INDICATES FEW OR NO CLOUDS BELOW 12,000 FEET WITH NO
SIGNIFICANT WEATHER AND/OR OBSTRUCTIONS TO VISIBILITY. N/A MEANS
CURRENT SKY AND/OR WEATHER CONDITIONS ARE NOT AVAILABLE.

MNZ060>063-068>070-160600-
   Twin Cities Metro

CITY           SKY/WX    TMP DP  RH WIND       PRES   REMARKS
TWIN CITIES    CLOUDY    67  61  81 SE8       29.94S
ST PAUL        CLOUDY    66  61  84 SE6       29.94F
CRYSTAL        PTCLDY    67  58  72 E6        29.92F
BLAINE         CLOUDY    66  61  82 E5        29.94R
LAKEVILLE      CLOUDY    59  59 100 CALM      29.94R
EDEN PRAIRIE   CLOUDY    68  61  78 E6        29.92S
SOUTH ST PAUL  MOCLDY    66  60  79 S3        29.94R
LAKE ELMO      FAIR      64  61  88 E5        29.96S
$$
MNZ001>005-007-008-013>017-022>024-027-028-160600-
   Northwest Minnesota

CITY           SKY/WX    TMP DP  RH WIND       PRES   REMARKS
BEMIDJI        CLOUDY    66  59  77 SE8       29.94S
HALLOCK        LGT RAIN  64  63  94 CALM      29.91R
ROSEAU           N/A     66  61  82 CALM      29.92S
WARROAD        CLOUDY    66  63  88 CALM      29.93S
THIEF RVR FALL CLOUDY    67  59  75 E5        29.92R
CROOKSTON      CLOUDY    66  61  82 SE7       29.89F
FOSSTON          N/A     64  57  77 SE6       29.92S
DETROIT LAKES  CLOUDY    66  59  77 SE10      29.92F
MOORHEAD       CLOUDY    66  61  82 SE6       29.88F
PARK RAPIDS    CLOUDY    68  59  73 SE9       29.93F
MAHNOMEN       FAIR      66  58  74 SE6       29.91S
$$
MNZ006-009>011-018-025>026-160600-
   North Central Minnesota

CITY           SKY/WX    TMP DP  RH WIND       PRES   REMARKS
BAUDETTE       MOCLDY    66  60  81 SE5       29.94R
FLAG ISLAND    CLOUDY    72  61  68 CALM      29.91S
INTL FALLS     CLOUDY    67  58  72 S5        29.96R
WASKISH        CLOUDY    66  61  82 SE3       29.95S
BIG FORK       CLOUDY    63  57  82 SE3       29.99R
LONGVILLE      CLOUDY    63  61  94 CALM      29.95F
GRAND RAPIDS   CLOUDY    61  58  90 SE5       30.01S
CRANE LAKE     MOCLDY    59  55  88 CALM      30.01R
ORR            CLOUDY    61  54  77 SE3       29.97S
COOK             N/A     59  52  77 E3        30.01S
WALKER         FAIR      66  59  79 SE7       29.94S
$$
MNZ012-019>021-037-160600-
   Northeast Minnesota

CITY           SKY/WX    TMP DP  RH WIND       PRES   REMARKS
DULUTH         CLOUDY    57  57 100 E8        30.01S
ELY            CLOUDY    54  46  76 CALM      30.02S
HIBBING        CLOUDY    54  51  90 E3        30.01R
EVELETH        CLOUDY    55  49  79 CALM      30.03S
DULUTH HARBOR  CLOUDY    63  61  94 NE16      30.01S
TWO HARBORS    PTCLDY    59  54  82 NE5       30.01S
SILVER BAY     CLOUDY    57  55  94 CALM      30.02R
GRAND MARAIS     N/A     53  51  93 N3        30.03R
G MARAIS ARPRT CLOUDY    50  45  81 CALM      30.06S
$$
MNZ029>031-032-039>041-046>048-054>057-064-160600-
   West Central Minnesota

CITY           SKY/WX    TMP DP  RH WIND       PRES   REMARKS
FERGUS FALLS   MOCLDY    66  57  72 SE7       29.90R
WHEATON        MOCLDY    63  61  94 SE8       29.89F
MORRIS         CLOUDY    64  61  88 SE9       29.88F
ALEXANDRIA     CLOUDY    64  59  83 SE9       29.93F
ELBOW LAKE     FAIR      64  59  85 E10       29.90S
WADENA         PTCLDY    63  57  82 SE7       29.92F
GLENWOOD       MOCLDY    63  61  94 E7        29.93S
APPLETON       CLOUDY    66  61  82 SE9       29.87F
BENSON         CLOUDY    66  61  82 S5        29.91F
ORTONVILLE     CLOUDY    64  61  88 MISG      29.87F
MADISON        CLOUDY    66  66 100 SE8       29.87F
WILLMAR        FAIR      64  63  94 E8        29.92S
$$
MNZ033>034-036-042>043-049>051-058-059-160600-
   Central Minnesota

CITY           SKY/WX    TMP DP  RH WIND       PRES   REMARKS
ST CLOUD       MOCLDY    63  59  87 E3        29.94F
SAUK CENTRE    FAIR      62  58  86 E5        29.94R
PAYNESVILLE    CLOUDY    64  60  86 E6        29.93F
AITKIN         CLOUDY    63  59  88 CALM      29.96F
PINE RIVER     CLOUDY    63  57  82 SE6       29.98F
BRAINERD       CLOUDY    63  58  83 E5        29.95F
STAPLES        CLOUDY    63  57  82 E3        29.94S
LONG PRAIRIE   FAIR      61  55  82 E3        29.95R
LITTLE FALLS   CLOUDY    61  55  82 E5        29.94F
LITCHFIELD     CLOUDY    64  63  94 E6        29.93F
BUFFALO        CLOUDY    64  58  83 CALM      29.95R
MAPLE LAKE     CLOUDY    66  62  85 SE3       29.95S
HUTCHINSON     CLOUDY    63  62  94 E5        29.94S
$$
MNZ037-044-045-052-053-160600-
   East Central Minnesota

CITY           SKY/WX    TMP DP  RH WIND       PRES   REMARKS
PRINCETON      PTCLDY    63  59  88 CALM      29.95S
MORA           CLOUDY    59  55  88 CALM      29.99S
RUSH CITY      CLOUDY    62  58  87 E3        29.96S
MOOSE LAKE     CLOUDY    59  57  94 CALM      29.98S
HINCKLEY       FAIR      61  61 100 N3        29.98R
CLOQUET        CLOUDY    59  55  88 E6        30.01S
MCGREGOR       CLOUDY    61  59  94 E6        29.99S
$$
MNZ071>073-080-081-089-090-097-098-160600-
   Southwest Minnesota

CITY           SKY/WX    TMP DP  RH WIND       PRES   REMARKS
MONTEVIDEO     CLOUDY    63  63 100 SE5       29.89F
GRANITE FALLS  CLOUDY    65  63  92 E5        29.91S
CANBY          CLOUDY    65  63  90 CALM      29.89F
MARSHALL       CLOUDY    64  62  93 SE8       29.89R
REDWOOD FALLS  CLOUDY    66  61  84 SE8       29.90S
OLIVIA         CLOUDY    63  61  94 E8        29.90S
PIPESTONE      CLOUDY    66  63  88 SE3       29.88S
WINDOM         MOCLDY    66  63  88 SE9       29.90S
WORTHINGTON    CLOUDY    65  64  97 E7        29.89S
JACKSON        CLOUDY    64  64 100 E10       29.91S FOG
TRACY          CLOUDY    65  64  98 SE8       29.89F
SLAYTON        CLOUDY    64  59  84 SE7       29.90S
$$
MNZ065>067-074>077-082>085-091>093-160600-
   South Central Minnesota

CITY           SKY/WX    TMP DP  RH WIND       PRES   REMARKS
MANKATO        LGT RAIN  64  63  94 SE10      29.93R
NEW ULM        CLOUDY    64  61  88 SE8       29.92R
ST JAMES       CLOUDY    64  63  94 E8        29.92F
FAIRMONT       CLOUDY    65  63  93 SE8       29.91S
GLENCOE        CLOUDY    64  63  97 E5        29.92S
FARIBAULT      CLOUDY    66  61  82 E10       29.94S
OWATONNA       LGT RAIN  64  61  88 SE9       29.94S
WASECA         LGT RAIN  63  59  88 E12       29.93F
ALBERT LEA     MOCLDY    66  64  94 SE9       29.93F
$$
MNZ078>079-086>088-094>096-160600-
   Southeast Minnesota

CITY           SKY/WX    TMP DP  RH WIND       PRES   REMARKS
ROCHESTER      CLOUDY    64  61  90 SE9       29.96S
RED WING       CLOUDY    66  61  82 E5        29.93S
STANTON        CLOUDY    65  60  82 E3        29.93S
DODGE CENTER   CLOUDY    63  61  94 SE6       29.96S
WINONA         CLOUDY    63  61  94 CALM      29.96S
AUSTIN         MOCLDY    63  61  94 SE3       29.95S
PRESTON        CLOUDY    64  60  85 SE8       29.97F
$$
ABBREVIATIONS USED IN REMARKS
   TC - TEMPERATURES IN CELSIUS
  WCI - WIND CHILL INDEX
   HX - HEAT INDEX
  VSB - VISIBILITY
$$




USA.gov is the U.S. government's official web portal to all federal, state and local government web resources and services.